Flag for Angola Weather past 2 weeks in Luanda, Angola

Now
79 °F

Partly sunny.


Feels Like: 82 °F
Forecast: 77 / 88 °F
Wind: 8 mph from South

Location: Luanda Airport

Current Time: Dec 20, 2014 at 8:38:01 AM

Latest Report: Dec 20, 2014 at 7:00 AM


Visibility: N/A

Pressure: 29.92 "Hg

Humidity: 79%

Dew point: 72 °F

Location of LuandaLocation

Historic Weather in Luanda — Graph

°F

Luanda temperature yesterday

Maximum temperature yesterday: 84 °F (at 11:00 AM)
Minimum temperature yesterday: 77 °F (at 6:00 AM)
Average temperature yesterday: 80 °F

Past Weeks' High & Low Weather Summary

 TemperatureHumidityPressure
High88 °F (Dec 5, 12:00 PM)100% (Dec 16, 6:00 AM)30.21 "Hg (Dec 16, 6:00 AM)
Low64 °F (Dec 16, 6:00 AM)31% (Dec 8, 11:00 AM)29.59 "Hg (Dec 7, 1:00 AM)
Average80 °F78%29.88 "Hg
* Reported Dec 5 9:00 AM — Dec 20 7:00 AM, Luanda, Weather by CustomWeather, © 2014

Note: Actual official high and low records may vary slightly from our data, if they occured in-between our weather recording intervals... More about our weather records

Advertising

Luanda weather history for previous 24 hours

 ConditionsComfort  
Time TempWeatherWind HumidityBarometerVisibility
7:00 AM
Dec 20
79 °FPartly sunny.8 mph79%29.92 "HgN/A
6:00 AM77 °FPartly sunny.5 mph83%29.92 "HgN/A
5:00 AM77 °FPassing clouds.7 mph83%29.92 "HgN/A
4:00 AM77 °FPassing clouds.7 mph83%29.92 "HgN/A
3:00 AM77 °FPassing clouds.7 mph83%29.92 "HgN/A
2:00 AM77 °FPassing clouds.7 mph83%29.92 "HgN/A
1:00 AM77 °FPassing clouds.7 mph83%29.92 "HgN/A
12:00 AM77 °FPassing clouds.7 mph83%29.95 "HgN/A
11:00 PM
Dec 19
79 °FPassing clouds.7 mph79%29.95 "HgN/A
10:00 PM79 °FPassing clouds.8 mph79%29.95 "HgN/A
9:00 PM79 °FPassing clouds.9 mph79%29.92 "HgN/A
8:00 PM81 °FPassing clouds.7 mph74%29.92 "HgN/A
7:00 PM81 °FPassing clouds.7 mph70%29.89 "HgN/A
6:00 PM81 °FPartly sunny.7 mph70%29.86 "HgN/A
5:00 PM81 °FBroken clouds.7 mph74%29.86 "HgN/A
4:00 PM81 °FBroken clouds.7 mph74%29.86 "HgN/A
3:00 PM82 °FBroken clouds.7 mph70%29.86 "HgN/A
2:00 PM82 °FBroken clouds.7 mph70%29.89 "HgN/A
1:00 PM84 °FBroken clouds.7 mph70%29.92 "HgN/A
12:00 PM82 °FBroken clouds.7 mph70%29.92 "HgN/A
11:00 AM84 °FBroken clouds.6 mph70%29.95 "HgN/A
9:00 AM81 °FPartly sunny.7 mph74%29.95 "HgN/A
8:00 AM79 °FPartly sunny.5 mph79%29.95 "HgN/A
Weather by CustomWeather, © 2014

See weather overviewHow to use our weather pages